Notices

What's New in latest Release from April 7th, 2021:

- Updated Glossary, including Speed of Maximum Gust, and Total Hourly Precipitation

- Updated national and regional climate services offices contacts and prices information

- Addition of station inventory lists for 1981-2010, 1971-2000, and 1961-1990 Normals.

If you haven't already, please take our survey and provide feedback about our website: https://eccc.sondage-survey.ca/f/LanguageSelection.aspx?s=442ca660-fcf1-47c0-95a9-59707d6fd709

Hourly Data Report for March 02, 2012

HALIFAX STANFIELD INT'L A
NOVA SCOTIA

44°52'48.060" N
63°30'00.050" W
145.40 m
8202250
71395
YHZ

Download Data

Hourly Data (March 2012)
Hourly Data Report for March 2, 2012
TIME
LST
Temp Definition
°C
Dew Point Definition
°C
Rel Hum Definition
%
Precip. Amount Definition
mm

Wind Dir Definition
10's deg

Wind Spd Definition
km/h
Visibility Definition
km
Stn Press Definition
kPa
Hmdx Definition


Wind Chill Definition


Weather Definition


00:00 -8.2 -11.4 78   5 28 16.1 99.98   -17 Cloudy
01:00 -8.4 -11.3 80   4 26 12.9 99.94   -17 Snow
02:00 -8.5 -10.8 83   4 26 4.0 99.94   -17 Snow,Blowing Snow
03:00 -8.5 -10.6 85   4 22 2.0 99.93   -16 Snow,Blowing Snow
04:00 -8.5 -10.3 87   2 19 2.4 99.93   -16 Snow,Blowing Snow
05:00 -8.5 -10.2 87   2 22 2.4 99.88   -16 Snow,Blowing Snow
06:00 -8.5 -10.4 86   3 22 4.8 99.87   -16 Snow,Blowing Snow
07:00 -8.1 -10.5 83   3 22 24.1 99.89   -16 Snow
08:00 -7.3 -9.9 82   2 20 24.1 99.97   -14 Cloudy
09:00 -6.6 -9.7 79   4 20 24.1 100.02   -14 Cloudy
10:00 -6.0 -9.2 78   3 24 24.1 100.02   -13 Cloudy
11:00 -5.1 -8.4 78   36 20 24.1 100.03   -12 Cloudy
12:00 -4.0 -7.9 74   2 20 24.1 100.02   -10 Cloudy
13:00 -3.1 -7.5 72   3 20 24.1 99.97   -9 Cloudy
14:00 -1.9 -7.4 66   6 28 24.1 99.96   -9 Mostly Cloudy
15:00 -2.0 -7.5 66   4 28 24.1 99.97   -9 Mostly Cloudy
16:00 -2.1 -7.9 64   3 13 24.1 100.06   -7 Cloudy
17:00 -2.7 -7.1 72   36 19 24.1 100.10   -8 Cloudy
18:00 -3.0 -7.5 71   2 17 24.1 100.10   -9 Cloudy
19:00 -3.4 -7.4 74   3 11 24.1 100.10   -8 Cloudy
20:00 -3.6 -7.4 75   36 6 24.1 100.21   -6 Cloudy
21:00 -3.6 -7.3 75   35 6 24.1 100.33   -6 Cloudy
22:00 -4.0 -7.3 78   3 6 24.1 100.28   -7 Cloudy
23:00 -4.4 -7.4 80   8 7 24.1 100.22   -8 Cloudy

Notes on Data Quality.

Legend

  • E = Estimated
  • M = Missing
  • NA = Not Available*
  • [empty] = Indicates an unobserved value
Date modified: